Temperature
17 18 17 17 17 17 16 16 14 14 14 13 12 11 12 13 13 12 11 11 10 10 9 9 8 8 8 8 7 7 7 8 8 8 9 9 9 10 10 10 10 10 10 10
17 17 17 16 17 17 16 16 15 14 13 13 13 13 12 12 12 11 11 10 9 9 8 8 7 6 6 6 6 6 6 6 6 7 7 7 8 8 9 9 9 10 10 9
16 17 17 16 16 16 15 14 14 12 12 11 10 10 11 12 11 10 10 9 8 8 7 6 6 5 5 5 5 5 5 5 5 5 5 6 6 7 7 8 8 9 9 9
15 16 17 16 16 16 15 14 13 12 11 11 11 11 12 11 10 9 9 8 7 7 6 6 6 5 5 5 5 4 4 4 4 4 4 4 5 5 6 6 7 8 8 8
14 16 16 16 16 16 14 12 12 12 11 11 12 10 10 11 9 9 8 7 7 6 6 6 5 5 5 4 4 4 4 4 4 4 4 4 4 4 5 5 6 7 7 7
14 17 16 16 16 16 14 13 13 12 11 11 9 7 8 10 9 8 8 7 7 6 6 6 5 5 4 4 4 4 4 4 4 4 4 4 4 4 4 4 5 6 6 6
14 15 15 15 15 15 14 14 14 13 12 11 9 8 10 9 8 8 7 7 6 6 6 6 5 5 4 4 4 4 4 4 4 4 4 4 4 4 4 4 4 5 5 6
12 15 15 15 14 13 14 14 14 13 12 11 10 10 9 8 8 7 7 7 6 6 6 6 5 5 4 4 5 4 4 4 4 4 4 4 3 3 3 4 4 4 5 5
13 14 15 16 15 16 15 14 13 12 12 11 10 9 8 8 7 7 7 7 6 6 6 6 5 5 5 5 5 5 5 4 4 4 4 4 3 3 3 3 4 4 4 5
13 13 14 15 15 15 14 14 13 12 11 10 9 8 8 7 7 7 7 6 6 6 6 6 6 5 5 5 5 5 5 4 4 4 4 4 4 4 4 4 4 4 4 5
13 13 14 15 15 15 14 13 13 12 11 10 9 8 7 7 7 6 6 6 6 6 6 6 6 5 5 5 5 5 5 5 4 4 4 4 4 4 4 4 4 4 4 5
14 16 14 16 17 15 14 13 12 11 10 9 8 8 7 7 6 6 6 6 6 6 6 6 6 6 6 5 5 5 5 5 4 4 4 4 4 4 4 4 4 4 4 5
19 19 18 17 16 15 14 13 12 11 10 9 8 8 7 7 6 6 6 6 6 6 6 6 6 6 6 6 6 5 5 5 5 4 4 4 4 4 4 4 4 4 5 5
19 18 16 16 15 14 13 13 12 11 10 9 8 8 7 6 6 6 6 6 7 7 7 6 6 6 6 6 6 6 6 5 5 5 5 4 4 4 4 4 4 4 5 5
18 18 17 16 15 14 13 13 12 11 10 9 8 7 7 6 6 6 6 6 7 7 7 7 7 7 6 6 6 6 6 6 6 5 5 5 5 5 5 5 5 5 5 5
18 17 16 16 15 14 13 12 11 11 9 9 8 7 7 6 6 6 6 6 6 7 7 7 7 7 7 7 6 6 6 6 6 6 6 5 5 5 5 5 5 5 5 5
18 17 16 16 15 14 13 12 11 10 9 9 8 7 7 6 7 7 7 7 7 7 7 6 7 7 7 7 7 7 6 6 6 6 6 6 6 6 5 5 5 5 5 5
19 19 17 16 15 14 13 12 11 10 9 9 8 7 7 6 6 6 6 7 7 8 8 7 7 8 7 7 7 7 7 7 7 7 7 6 6 6 6 6 6 6 6 6
18 18 17 16 15 14 13 12 11 10 9 9 8 7 7 6 6 6 6 6 7 7 8 8 8 8 8 8 7 7 7 7 7 7 7 7 7 7 6 6 6 6 6 6
18 17 16 15 15 14 13 12 11 10 9 9 8 7 7 6 6 6 6 6 5 5 6 7 7 8 8 8 8 7 7 7 7 7 7 7 7 7 7 6 6 6 6 6
18 17 16 15 15 14 13 12 11 10 9 9 8 7 7 7 6 6 6 6 6 6 7 7 7 8 8 8 8 8 8 7 7 7 7 7 7 7 7 7 6 6 6 6
18 17 16 15 15 14 13 12 11 10 9 9 8 7 7 7 6 6 6 5 6 6 7 7 7 8 8 8 8 8 8 8 7 7 7 7 7 7 7 7 7 6 6 6
18 17 16 15 15 14 13 12 12 11 10 9 8 7 7 7 6 6 6 6 6 6 6 7 7 7 8 9 9 9 8 8 8 7 7 7 7 7 7 7 7 7 7 7
17 17 16 15 14 14 13 13 12 11 10 9 8 7 7 7 6 6 5 5 5 6 6 6 7 8 8 9 9 9 9 8 8 8 8 7 7 7 7 7 7 7 7 7
17 16 16 15 15 14 14 13 12 11 10 9 8 7 7 6 6 6 5 5 5 5 6 6 7 8 8 9 9 9 9 9 9 8 8 8 8 8 7 8 8 8 8 8
16 16 16 15 15 15 14 13 12 11 10 9 8 7 7 6 6 5 5 5 5 5 5 6 7 7 8 8 9 9 9 9 9 9 9 9 8 8 8 8 8 8 8 9
16 16 15 15 15 14 13 13 12 11 10 9 7 7 6 6 6 5 5 5 5 5 5 5 6 7 7 8 8 9 9 9 9 9 9 9 9 9 9 9 9 9 9 9
Wind_Speed
3 3 5 4 4 4 3 3 5 7 7 6 5 8 9 10 10 11 11 11 12 11 11 11 11 11 11 12 12 13 14 15 15 16 16 15 14 13 13 12 14 13 11 11
3 4 7 4 3 2 0 2 4 5 7 6 6 7 8 11 11 11 11 12 12 12 12 12 11 11 12 12 13 13 14 15 15 15 16 15 15 14 13 12 12 12 12 11
3 3 2 2 3 2 4 5 5 7 7 8 9 9 9 11 10 11 12 13 13 12 12 13 13 13 13 13 13 13 14 15 15 15 15 15 16 15 13 12 11 11 12 11
3 2 3 6 3 3 5 7 7 7 8 9 11 10 10 10 9 10 11 11 12 12 13 13 13 14 13 14 14 15 15 15 15 15 16 15 15 15 14 11 10 10 11 11
3 1 5 3 4 3 4 7 7 7 9 8 8 8 7 7 6 8 10 11 12 14 15 13 14 14 14 15 15 16 16 16 16 16 16 16 16 14 12 11 10 9 8 10
4 2 5 7 3 1 2 6 6 6 8 8 7 7 6 7 9 10 11 11 13 14 14 13 14 14 15 16 16 16 16 17 16 16 16 16 15 14 11 10 11 10 10 9
3 4 7 6 2 3 1 6 4 5 7 7 5 7 9 10 10 10 12 14 14 14 14 14 14 14 15 16 16 16 17 17 16 15 15 15 13 11 10 9 9 8 9 8
4 2 7 5 6 6 8 4 3 5 6 7 8 9 9 9 10 12 13 13 13 13 15 15 14 14 16 16 16 16 16 16 16 15 14 12 10 9 8 7 7 7 7 7
8 7 5 6 8 6 6 5 5 5 7 6 7 8 8 8 10 12 13 13 13 14 16 15 14 13 16 16 16 16 16 16 15 14 12 11 9 9 7 5 5 5 6 6
4 7 6 7 5 4 6 6 5 6 6 5 7 8 10 10 10 11 11 14 13 14 16 16 16 15 15 15 15 15 15 14 13 12 11 9 7 6 5 4 4 5 6 6
5 6 4 8 8 7 6 6 6 5 5 6 7 9 9 9 11 11 12 12 12 14 15 17 16 16 15 14 14 14 14 13 12 11 10 9 8 6 6 5 5 5 5 5
9 8 8 8 8 8 7 7 7 6 5 6 6 8 8 9 10 11 13 13 14 14 15 16 16 16 15 13 13 13 12 11 9 9 9 7 7 7 5 5 5 6 6 5
7 6 7 4 5 7 7 7 6 6 6 6 6 7 7 8 8 11 13 13 14 15 16 16 16 16 15 14 13 13 12 11 8 8 8 7 6 6 5 4 5 4 1 3
6 7 4 6 7 8 7 4 3 3 5 6 6 7 8 8 10 12 13 14 14 15 15 15 16 16 15 14 13 12 11 11 9 7 6 6 6 5 4 3 2 3 5 5
9 8 7 6 7 6 5 3 3 5 6 6 6 7 8 10 11 13 13 13 14 14 15 15 16 17 16 14 13 12 10 8 7 6 5 5 5 4 3 3 2 2 2 4
9 6 5 6 8 7 5 5 5 6 6 6 7 8 9 10 11 12 12 11 13 15 15 16 16 17 16 14 13 9 8 11 9 5 5 5 5 4 3 3 2 2 2 2
10 9 8 8 9 8 7 7 7 7 6 7 8 8 9 10 11 12 13 12 12 12 12 13 16 18 16 14 12 8 7 8 10 6 4 4 4 3 3 2 2 2 2 2
12 12 10 9 8 9 8 7 7 7 6 6 7 7 8 9 11 13 14 15 14 13 11 14 17 18 16 14 11 7 5 5 5 5 4 4 3 3 2 2 2 2 1 2
9 10 10 10 9 8 7 7 7 6 6 5 5 6 7 8 9 11 11 12 13 15 17 19 22 18 16 16 15 7 5 5 5 4 4 4 4 3 2 2 1 1 1 2
9 8 9 9 8 7 7 6 6 6 5 4 4 6 7 8 9 10 10 8 7 9 15 17 17 15 16 16 16 8 6 5 4 4 3 3 3 3 3 2 1 1 1 2
11 10 10 9 9 8 7 6 6 6 5 3 4 6 7 8 9 9 9 9 9 12 15 15 13 14 15 16 14 8 7 5 4 3 3 2 2 2 2 2 2 2 2 2
10 10 10 9 9 7 6 6 5 5 4 3 4 5 6 8 8 8 7 7 11 15 13 11 12 17 20 16 10 9 8 7 5 3 2 2 1 1 2 2 2 2 3 3
9 10 10 10 9 8 5 5 6 5 4 4 4 5 5 6 6 6 8 8 10 14 12 10 16 22 20 12 10 10 10 9 8 5 4 2 1 1 0 1 2 2 3 3
9 10 10 9 7 6 7 7 6 4 4 3 3 3 4 5 5 4 6 11 13 14 11 12 16 19 15 10 10 10 10 10 9 8 6 4 2 1 1 1 1 2 2 3
10 10 9 9 9 9 9 7 6 5 4 2 3 3 3 2 4 6 8 9 12 12 10 12 15 15 12 10 11 10 10 10 10 9 8 7 4 2 0 1 2 2 2 2
10 10 10 12 11 9 7 7 6 5 5 3 2 2 3 3 5 5 6 9 11 12 10 10 11 12 11 11 11 11 10 10 10 9 9 8 7 6 3 1 2 2 2 2
8 8 7 8 7 7 7 8 8 7 7 5 3 2 2 3 4 5 7 7 8 9 9 9 10 10 10 10 10 10 10 10 10 10 9 8 8 7 6 4 2 1 2 2
Wind_Direction
60 72 100 92 68 65 98 175 215 259 263 256 271 287 289 290 295 303 302 301 299 298 297 297 300 302 304 304 305 305 303 299 294 291 288 284 276 266 256 245 238 231 228 228
64 72 90 79 35 37 127 251 252 272 273 250 282 296 289 289 293 296 297 302 304 304 305 306 307 307 305 303 303 302 300 298 296 295 293 290 285 276 264 251 242 231 223 223
189 213 344 279 238 244 247 234 221 240 255 289 299 295 284 288 296 297 302 305 304 305 304 305 305 305 304 300 300 299 297 297 296 295 293 292 292 287 275 261 246 234 227 220
122 95 258 250 231 221 238 240 217 232 259 277 273 278 278 279 283 291 295 298 301 303 304 303 301 301 300 301 301 301 299 298 297 295 294 292 289 286 278 266 251 240 232 221
106 197 287 257 223 199 236 269 217 235 265 277 294 315 292 274 282 287 293 299 302 303 303 301 302 303 305 306 306 305 303 301 299 296 292 290 287 282 278 268 256 242 234 224
119 178 249 245 209 162 159 287 222 231 271 289 320 326 289 295 311 305 304 302 303 303 302 303 305 308 311 311 310 308 307 304 301 298 293 289 285 279 276 266 256 246 236 226
153 224 262 240 168 96 191 267 226 234 265 277 257 244 273 302 302 297 297 300 303 305 309 311 311 313 313 312 311 310 308 306 303 299 295 291 285 280 274 264 250 239 233 228
158 209 265 200 145 185 222 240 248 255 263 267 266 274 287 296 297 302 305 306 308 309 313 314 313 314 314 312 312 311 310 308 306 303 300 301 293 288 281 265 249 238 233 235
189 213 241 201 202 213 183 213 243 248 266 275 280 285 292 291 295 301 304 307 310 312 315 316 316 315 313 313 314 314 314 313 312 311 308 304 298 292 284 264 241 230 227 232
236 259 240 230 230 220 197 214 242 258 275 272 275 281 288 290 296 303 305 311 313 316 318 318 319 318 313 312 315 317 317 318 318 319 317 312 306 296 282 262 248 233 222 226
243 267 257 251 231 219 216 232 261 275 265 263 268 277 280 290 300 306 310 311 312 316 317 317 320 319 317 316 319 320 320 321 323 323 322 320 313 302 287 264 248 236 221 215
219 216 194 233 224 198 207 234 249 257 266 267 260 270 285 295 299 305 309 312 316 317 318 319 320 319 319 320 323 323 325 326 326 326 325 325 325 326 313 290 283 257 240 225
205 186 183 220 190 186 202 228 240 245 258 274 277 277 288 294 296 304 309 314 318 318 317 318 319 320 322 325 325 323 323 323 323 327 329 329 332 334 337 357 37 48 18 236
173 137 164 195 198 201 205 222 239 265 277 275 275 286 293 294 301 311 315 317 317 317 318 320 323 324 326 325 323 322 323 322 327 323 325 326 328 329 329 340 7 30 35 39
186 181 189 196 192 191 198 213 245 278 284 287 282 290 298 305 310 313 314 316 319 322 324 327 328 328 328 326 322 320 321 320 320 323 326 327 331 336 343 0 29 36 44 48
180 183 180 181 195 207 213 227 243 264 274 279 287 294 301 304 306 308 312 317 325 326 325 326 328 327 327 327 324 319 318 325 334 332 335 339 345 352 1 20 34 34 44 53
155 187 200 208 214 216 218 223 228 246 263 275 283 297 308 315 319 322 325 327 323 317 317 325 328 328 329 330 326 318 315 323 335 339 341 340 346 354 358 10 23 41 45 55
185 187 181 185 196 209 222 229 234 244 254 266 289 306 314 318 319 321 323 326 327 328 333 336 334 332 331 333 331 318 311 316 326 330 334 340 341 347 356 5 28 59 71 81
185 182 186 190 187 187 202 219 231 238 255 272 291 302 304 306 308 312 318 325 333 339 339 336 331 333 334 335 337 321 315 317 327 336 341 348 359 5 8 12 23 45 104 113
187 184 184 187 185 185 200 216 224 236 250 261 286 302 310 313 316 320 322 318 318 327 328 327 330 335 337 335 336 329 323 317 317 330 345 358 6 11 17 20 29 66 99 115
189 183 182 186 194 202 208 210 211 230 246 257 278 294 301 308 317 324 327 329 332 335 335 331 338 340 338 335 331 337 335 326 322 322 332 345 2 15 26 30 33 54 83 101
188 184 187 188 193 207 214 209 210 223 236 262 284 300 310 317 322 323 310 310 324 332 337 337 342 340 340 338 344 348 348 345 337 325 318 322 341 11 38 45 47 54 69 90
186 183 185 190 197 204 208 205 207 210 224 248 275 295 304 307 312 321 328 326 330 333 337 337 337 339 343 349 352 353 356 355 349 343 330 309 290 290 65 72 80 87 84 92
183 184 190 189 177 188 211 215 202 200 208 232 260 285 301 313 314 304 308 316 328 331 336 333 335 342 349 356 357 358 359 358 355 352 351 344 331 277 193 153 127 117 110 109
187 184 182 182 192 211 215 197 180 184 190 221 264 299 312 298 296 312 321 329 334 337 339 338 341 348 358 359 360 0 360 358 355 353 357 358 359 355 310 168 160 149 135 125
192 193 198 204 208 207 193 176 177 180 180 205 244 283 314 318 317 322 332 338 341 341 345 347 351 355 1 1 1 1 2 359 358 359 359 1 3 9 19 63 141 156 159 159
207 204 203 211 211 193 181 178 180 182 180 185 206 244 304 320 329 341 349 350 349 348 349 352 355 359 360 1 2 4 5 4 4 2 360 1 2 3 6 18 38 94 135 148
Height
1523 1520 1521 1524 1525 1525 1527 1529 1535 1531 1528 1524 1522 1520 1516 1512 1509 1505 1502 1498 1493 1488 1483 1478 1472 1466 1460 1454 1449 1444 1438 1432 1427 1423 1419 1416 1413 1411 1410 1411 1411 1412 1413 1415
1526 1524 1524 1528 1526 1525 1526 1526 1527 1527 1526 1519 1518 1516 1513 1509 1505 1501 1498 1493 1488 1483 1477 1471 1465 1459 1453 1447 1441 1436 1430 1424 1419 1414 1409 1405 1402 1400 1399 1399 1400 1402 1403 1406
1534 1527 1528 1533 1528 1526 1526 1524 1526 1528 1524 1517 1515 1513 1509 1504 1501 1498 1494 1488 1483 1477 1470 1464 1458 1452 1445 1439 1434 1428 1422 1416 1411 1405 1400 1396 1392 1390 1389 1389 1390 1392 1394 1396
1535 1533 1536 1531 1520 1520 1522 1521 1521 1520 1518 1515 1512 1509 1505 1502 1499 1494 1489 1483 1477 1470 1464 1458 1452 1445 1439 1433 1427 1421 1414 1409 1403 1398 1392 1387 1383 1380 1378 1379 1380 1382 1384 1387
1538 1536 1532 1525 1519 1519 1522 1522 1517 1517 1515 1512 1508 1504 1500 1499 1495 1490 1485 1479 1472 1465 1459 1452 1446 1439 1433 1426 1420 1414 1408 1402 1396 1390 1384 1379 1375 1371 1369 1369 1369 1372 1375 1379
1536 1533 1535 1524 1516 1516 1520 1521 1514 1513 1511 1509 1507 1506 1499 1494 1490 1485 1480 1474 1467 1459 1453 1446 1440 1433 1427 1420 1414 1407 1401 1395 1389 1383 1377 1371 1366 1363 1360 1359 1360 1362 1366 1370
1533 1534 1527 1515 1513 1516 1524 1520 1511 1509 1508 1506 1504 1502 1496 1491 1486 1481 1475 1468 1461 1454 1447 1441 1434 1428 1421 1415 1408 1402 1395 1388 1382 1376 1370 1364 1359 1355 1353 1352 1352 1355 1358 1362
1535 1533 1528 1510 1511 1515 1513 1507 1507 1506 1504 1502 1499 1495 1491 1487 1481 1476 1469 1462 1456 1449 1442 1436 1429 1423 1416 1410 1403 1397 1390 1383 1376 1370 1364 1358 1353 1350 1347 1346 1346 1348 1351 1355
1520 1519 1508 1505 1505 1505 1505 1504 1504 1502 1500 1498 1495 1491 1487 1482 1477 1471 1465 1458 1452 1445 1438 1431 1425 1419 1412 1405 1398 1392 1385 1378 1371 1365 1359 1354 1349 1346 1343 1342 1342 1344 1346 1349
1512 1506 1503 1503 1502 1502 1502 1502 1501 1499 1497 1494 1491 1488 1484 1479 1473 1467 1460 1454 1448 1441 1434 1427 1421 1414 1408 1401 1395 1388 1381 1375 1368 1362 1356 1351 1347 1344 1341 1340 1340 1341 1342 1345
1507 1502 1501 1499 1499 1499 1499 1499 1498 1496 1494 1491 1488 1484 1480 1474 1469 1463 1457 1450 1444 1437 1430 1423 1417 1410 1404 1398 1392 1385 1379 1372 1366 1360 1355 1350 1346 1343 1340 1339 1339 1339 1340 1342
1502 1494 1495 1494 1494 1495 1496 1495 1494 1492 1490 1488 1484 1480 1476 1470 1465 1459 1453 1447 1440 1434 1427 1420 1413 1407 1401 1395 1389 1383 1377 1371 1365 1360 1355 1351 1347 1343 1340 1338 1338 1338 1339 1341
1489 1490 1491 1491 1491 1492 1492 1492 1491 1489 1487 1484 1481 1477 1472 1467 1461 1456 1450 1443 1437 1431 1424 1417 1411 1404 1398 1392 1387 1382 1376 1370 1365 1360 1355 1351 1347 1344 1341 1340 1338 1338 1339 1340
1486 1487 1488 1488 1488 1489 1489 1489 1487 1486 1483 1481 1477 1473 1469 1464 1458 1452 1446 1440 1434 1428 1422 1415 1408 1402 1395 1390 1385 1380 1376 1371 1366 1361 1356 1353 1349 1346 1343 1342 1340 1340 1341 1342
1482 1484 1485 1485 1485 1486 1486 1485 1484 1482 1480 1477 1474 1470 1465 1460 1454 1449 1443 1437 1431 1425 1419 1413 1406 1400 1393 1388 1383 1379 1375 1370 1366 1362 1358 1354 1351 1348 1346 1344 1343 1342 1342 1343
1477 1480 1481 1481 1482 1483 1483 1482 1481 1479 1476 1474 1470 1466 1462 1457 1451 1446 1440 1434 1428 1423 1417 1410 1404 1398 1392 1386 1381 1377 1374 1370 1367 1363 1359 1356 1353 1350 1348 1346 1345 1345 1345 1345
1473 1475 1476 1477 1478 1479 1479 1479 1477 1475 1473 1470 1467 1463 1459 1454 1448 1442 1436 1431 1426 1421 1415 1409 1403 1397 1391 1385 1380 1376 1373 1370 1367 1364 1361 1358 1355 1353 1351 1349 1348 1347 1347 1347
1469 1471 1473 1474 1475 1475 1475 1475 1473 1472 1470 1467 1464 1460 1456 1451 1445 1439 1434 1429 1423 1418 1414 1408 1402 1396 1390 1384 1379 1375 1372 1370 1367 1365 1362 1360 1357 1356 1354 1352 1351 1350 1349 1349
1466 1468 1469 1470 1471 1472 1471 1471 1470 1468 1467 1464 1461 1457 1453 1449 1443 1438 1433 1427 1421 1415 1411 1406 1400 1395 1389 1384 1379 1375 1371 1369 1367 1365 1363 1362 1360 1358 1356 1355 1353 1352 1351 1351
1463 1465 1466 1467 1468 1468 1468 1467 1466 1465 1464 1461 1458 1454 1450 1446 1441 1436 1430 1426 1421 1416 1410 1405 1400 1394 1389 1384 1379 1375 1371 1369 1367 1365 1364 1363 1361 1360 1358 1357 1355 1353 1353 1353
1458 1460 1462 1463 1464 1465 1465 1464 1463 1462 1461 1458 1455 1452 1448 1444 1439 1434 1428 1423 1419 1414 1409 1404 1399 1394 1389 1384 1379 1375 1372 1369 1367 1365 1364 1363 1362 1361 1360 1359 1357 1356 1355 1355
1454 1456 1458 1460 1461 1462 1462 1461 1461 1460 1458 1456 1453 1450 1446 1441 1436 1432 1428 1423 1418 1413 1408 1404 1399 1395 1390 1385 1381 1377 1373 1370 1367 1365 1364 1363 1363 1362 1362 1361 1360 1359 1359 1359
1450 1453 1455 1457 1458 1458 1458 1458 1457 1457 1455 1454 1451 1447 1444 1440 1435 1430 1425 1421 1417 1412 1408 1403 1400 1395 1391 1386 1382 1378 1375 1371 1369 1367 1365 1364 1363 1363 1363 1363 1363 1363 1363 1363
1446 1449 1451 1453 1453 1454 1453 1454 1454 1453 1452 1451 1448 1445 1442 1438 1434 1429 1425 1420 1416 1412 1407 1403 1399 1395 1392 1387 1384 1380 1376 1373 1371 1368 1366 1365 1364 1363 1363 1364 1365 1366 1367 1368
1441 1443 1446 1447 1447 1447 1448 1449 1449 1449 1449 1448 1446 1443 1440 1436 1432 1428 1424 1419 1415 1411 1407 1403 1399 1396 1392 1388 1385 1382 1379 1376 1373 1371 1369 1367 1366 1365 1365 1365 1367 1368 1370 1372
1435 1436 1438 1439 1440 1441 1442 1442 1443 1444 1444 1444 1443 1441 1438 1434 1431 1427 1423 1419 1415 1411 1406 1403 1399 1396 1392 1389 1386 1384 1381 1379 1376 1374 1372 1370 1369 1368 1367 1368 1369 1370 1372 1374
1429 1430 1431 1432 1432 1433 1435 1436 1437 1439 1440 1440 1440 1438 1435 1432 1429 1426 1422 1418 1415 1411 1407 1403 1399 1396 1393 1390 1388 1385 1383 1381 1379 1377 1375 1373 1372 1372 1371 1371 1372 1373 1375 1377